Ash Shahaniyah, Qatar

3:17 PM +03 on October 18, 2017 (GMT +0300)
Ash Shahaniyah

Weather History for WKQIR - September, 2013

Change the Weather History Date:

Sunday, September 22, 2013

  Actual Average Record
Temperature  
Mean Temperature 94 °F -  
Max Temperature 107 °F - - ()
Min Temperature 80 °F - - ()
Cooling Degree Days 28    
Growing Degree Days 44 (Base 50)    
Moisture  
Dew Point 52 °F    
Average Humidity 28    
Maximum Humidity 74    
Minimum Humidity 11    
Precipitation  
Precipitation 0.00 in - - ()
Sea Level Pressure  
Sea Level Pressure 29.61 in    
Wind  
Wind Speed 13 mph ()    
Max Wind Speed 29 mph    
Max Gust Speed 32 mph    
Visibility 5.6 miles    
Events      
T = Trace of Precipitation, MM = Missing Value Source: Averaged Metar Reports

Daily Weather History Graph

Daily Weather History Graph

Search for Another Location

Airport or City:

Trip Planner

Search our weather history database for the weather conditions in past years. The results will help you decide how hot, cold, wet, or windy it might be!

Date:

Astronomy

Sep. 22, 2013 Rise Set
Actual Time 5:23 AM +03 5:31 PM +03
Civil Twilight 5:00 AM +03 5:54 PM +03
Nautical Twilight 4:34 AM +03 6:21 PM +03
Astronomical Twilight 4:07 AM +03 6:47 PM +03
Moon 7:29 PM +03 (9/22) 7:58 AM +03 (9/22)
Length of Visible Light 12h 53m
Length of Day
12h 07m
Waning Gibbous, 90% of the Moon is Illuminated
Sep 22
Waning Gibbous
Sep 27
Last Quarter
Oct 5
New
Oct 12
First Quarter
Oct 19
Full

Hourly Weather History & Observations

Time (+03) Temp. Heat Index Dew Point Humidity Pressure Visibility Wind Dir Wind Speed Gust Speed Precip Events Conditions
12:55 AM 82.8 °F 85.8 °F 68.2 °F 61% 29.61 in 6.2 mi West 9.2 mph - N/A   Clear
1:55 AM 82.0 °F 85.1 °F 68.2 °F 63% 29.60 in 6.2 mi West 6.9 mph - N/A   Clear
2:55 AM 81.3 °F 84.8 °F 70.0 °F 68% 29.61 in 6.2 mi West 10.4 mph - N/A   Clear
3:55 AM 81.1 °F 85.6 °F 72.3 °F 74% 29.61 in 6.2 mi West 10.4 mph - N/A   Clear
4:55 AM 80.4 °F 84.1 °F 71.2 °F 73% 29.62 in 6.2 mi West 10.4 mph - N/A   Clear
5:55 AM 80.6 °F 83.8 °F 69.6 °F 69% 29.62 in 6.2 mi West 10.4 mph - N/A   Clear
6:55 AM 84.7 °F 87.6 °F 67.5 °F 56% 29.64 in 6.2 mi West 11.5 mph - N/A   Clear
7:55 AM 93.6 °F 93.1 °F 59.4 °F 32% 29.65 in 6.2 mi WNW 13.8 mph - N/A   Clear
8:55 AM 100.2 °F - 52.0 °F 20% 29.65 in 6.2 mi WNW 17.3 mph - N/A   Clear
9:55 AM 104.0 °F - 48.2 °F 15% 29.65 in 6.2 mi NW 15.0 mph 23.0 mph N/A   Clear
10:55 AM 106.2 °F - 44.4 °F 12% 29.63 in 6.2 mi NW 17.3 mph - N/A   Clear
11:43 AM 107.6 °F - 44.6 °F 12% 29.61 in - NNW 26.5 mph 31.1 mph N/A   Haze
11:44 AM 107.6 °F - 44.6 °F 12% 29.61 in 2.5 mi NNW 24.2 mph 31.1 mph N/A   Haze
11:55 AM 107.6 °F - 44.6 °F 12% 29.62 in 3.1 mi NNW 24.2 mph 31.1 mph N/A   Haze
11:57 AM 105.8 °F - 44.6 °F 13% 29.61 in 3.7 mi NW 19.6 mph 28.8 mph N/A   Haze
12:26 PM 107.6 °F - 44.6 °F 12% 29.60 in - NNW 24.2 mph 29.9 mph N/A   Haze
12:55 PM 107.1 °F - 44.2 °F 12% 29.59 in 6.2 mi NW 20.7 mph 29.9 mph N/A   Clear
1:55 PM 106.9 °F - 42.3 °F 11% 29.57 in - NNW 25.3 mph 31.1 mph N/A   Haze
2:03 PM 107.6 °F - 42.8 °F 11% 29.57 in 2.5 mi NNW 28.8 mph 32.2 mph N/A   Haze
2:06 PM 107.6 °F - 42.8 °F 11% 29.57 in - NNW 23.0 mph 32.2 mph N/A   Haze
2:21 PM 107.6 °F - 42.8 °F 11% 29.57 in 3.7 mi NNW 21.9 mph - N/A   Haze
2:55 PM 106.3 °F - 42.6 °F 12% 29.57 in 5.6 mi NNW 21.9 mph 31.1 mph N/A   Haze
3:55 PM 104.7 °F - 45.0 °F 13% 29.58 in 6.2 mi NW 20.7 mph - N/A   Clear
4:55 PM 102.4 °F - 43.5 °F 13% 29.58 in 6.2 mi NNW 20.7 mph - N/A   Clear
5:55 PM 98.6 °F - 47.3 °F 17% 29.59 in 6.2 mi NNW 12.7 mph - N/A   Clear
6:55 PM 94.5 °F - 46.8 °F 19% 29.60 in 6.2 mi North 9.2 mph - N/A   Clear
7:55 PM 91.6 °F - 47.3 °F 22% 29.61 in 6.2 mi NNW 8.1 mph - N/A   Clear
8:55 PM 89.6 °F - 47.7 °F 23% 29.62 in 6.2 mi North 4.6 mph - N/A   Clear
9:55 PM 86.7 °F - 49.6 °F 28% 29.61 in 6.2 mi North 3.5 mph - N/A   Clear
10:55 PM 84.7 °F - 49.1 °F 29% 29.61 in 6.2 mi NNW 4.6 mph - N/A   Clear
11:55 PM 82.4 °F - 49.1 °F 31% 29.61 in 6.2 mi West 5.8 mph - N/A   Clear